Regional Weather Roundup
Issued by NWS

Home | Current Version | Previous Version | Text Only | Print | Product List | Glossary On
Versions: 1 2 3 4 5 6 7 8 9 10 11 12 13 14 15 16 17 18 19 20 21 22 23 24 25 26 27 28 29 30 31 32 33 34 35 36 37 38 39 40 41 42 43 44 45 46 47 48 49 50
000
ASUS43 KMPX 190610
RWRMN
WEATHER ROUNDUP FOR MINNESOTA
NATIONAL WEATHER SERVICE TWIN CITIES/CHANHASSEN MN
1200 AM CST MON FEB 19 2018


NOTE: "FAIR" INDICATES FEW OR NO CLOUDS BELOW 12,000 FEET WITH NO
SIGNIFICANT WEATHER AND/OR OBSTRUCTIONS TO VISIBILITY. N/A MEANS
CURRENT SKY AND/OR WEATHER CONDITIONS ARE NOT AVAILABLE.

MNZ060>063-068>070-190700-
   Twin Cities Metro

CITY           SKY/WX    TMP DP  RH WIND       PRES   REMARKS
TWIN CITIES    FAIR      27  23  85 N20       29.76R WCI  13
6HR MIN TEMP:  27; 6HR MAX TEMP:  41;

ST PAUL        FAIR      27  23  85 NW9       29.78R WCI  18
CRYSTAL        FAIR      26  21  81 N12       29.76R WCI  16
BLAINE         FAIR      27  25  93 N13G18    29.77R WCI  16
LAKEVILLE      FAIR      27  25  93 N12       29.73R WCI  16
EDEN PRAIRIE   FAIR      26  21  81 N16       29.73R WCI  14
6HR MIN TEMP:  26; 6HR MAX TEMP:  40;

SOUTH ST PAUL  FAIR      28  23  82 N13G18    29.75R WCI  17
LAKE ELMO      FAIR      28  25  86 N9        29.76R WCI  20
$$
MNZ001>005-007-008-013>017-022>024-027-028-190700-
   Northwest Minnesota

CITY           SKY/WX    TMP DP  RH WIND       PRES   REMARKS
BEMIDJI        FAIR       4   0  85 N5        29.97R WCI  -5
HALLOCK        FAIR       5  -8  56 N12       30.12R WCI -11
WARROAD        FAIR       1  -4  78 NW7       30.07R WCI -11
THIEF RVR FALL FAIR       5  -1  76 N15       30.06R WCI -13
CROOKSTON      FAIR       7   0  72 N13       30.09R WCI  -9
FOSSTON        FAIR       3  -2  78 N7        30.02R WCI  -9
DETROIT LAKES  FAIR      10   7  85 N8        29.97R WCI  -1
MOORHEAD       FAIR       9   1  72 N15       30.04R WCI  -8
PARK RAPIDS    CLOUDY     9   4  80 N10       29.93R WCI  -5
MAHNOMEN       MOCLDY     5   1  81 N10       29.99S WCI -10
$$
MNZ006-009>011-018-025>026-190700-
   North Central Minnesota

CITY           SKY/WX    TMP DP  RH WIND       PRES   REMARKS
BAUDETTE       FAIR       4  -2  76 N9        30.02R WCI -10
FLAG ISLAND    FAIR      -2  -6  84 N7        30.05S WCI -16
INTL FALLS     FAIR       5   0  79 N7        29.99R WCI  -7
6HR MIN TEMP:   5; 6HR MAX TEMP:  10; 6HR PCP: TRACE;

WASKISH        FAIR       5   1  85 N8        29.98S WCI  -8
BIG FORK       FAIR       5   1  85 N5        29.97R WCI  -4
LONGVILLE      CLOUDY     9   3  78 N5        29.95R WCI   0
GRAND RAPIDS   FAIR       8   4  83 N10       29.95R WCI  -6
CRANE LAKE     FAIR      -6  -9  84 CALM      30.00R
ORR            FAIR       1  -2  85 CALM      29.92R
COOK             N/A      3   1  92 CALM      29.94R
WALKER         CLOUDY     7   3  82 N9        29.95R WCI  -6
$$
MNZ012-019>021-037-190700-
   Northeast Minnesota

CITY           SKY/WX    TMP DP  RH WIND       PRES   REMARKS
DULUTH         CLOUDY    14   9  80 N9        29.87R WCI   2
6HR MIN TEMP:  14; 6HR MAX TEMP:  23; 6HR PCP:  0.08;

ELY            FAIR       5   1  85 CALM      29.91R
HIBBING        MIX PCPN   7   2  80 N8        29.91R WCI  -6
EVELETH        FAIR     N/A N/A N/A NE8       29.91R
DULUTH HARBOR  CLOUDY    21  16  79 N14       29.91R WCI   8
TWO HARBORS    MOCLDY    18  10  73 CALM      29.86R
GRAND MARAIS     N/A     15   6  67 N10G23    29.90R WCI   2
G MARAIS ARPRT CLOUDY     7   0  72 N14       29.83R WCI -10
$$
MNZ029>031-032-039>041-046>048-054>057-064-190700-
   West Central Minnesota

CITY           SKY/WX    TMP DP  RH WIND       PRES   REMARKS
FERGUS FALLS   CLOUDY    10   7  85 N12G18    29.95S WCI  -4
WHEATON        CLOUDY    10   5  79 NW16G22   29.99R WCI  -7
MORRIS         CLOUDY    14   9  79 N16       29.87F WCI  -2
ALEXANDRIA     MOCLDY    15  10  80 N13       29.86S WCI   1
ELBOW LAKE     FAIR      13   8  82 N12       29.90F WCI  -1
WADENA         FLURRIES  10   7  85 N10       29.91R WCI  -3
GLENWOOD       FAIR      16  12  86 N18G24    29.84F WCI  -1
APPLETON       MOCLDY    18  10  73 N21       29.86F WCI   1
BENSON         CLOUDY    19  12  73 NE12      29.87F WCI   7
ORTONVILLE     CLOUDY    12   7  79 N18G24    29.90S WCI  -5
MADISON        CLOUDY    18  12  79 N20G25    29.88F WCI   1
WILLMAR        MOCLDY    21  16  79 N12       29.84F WCI   9
$$
MNZ033>034-036-042>043-049>051-058-059-190700-
   Central Minnesota

CITY           SKY/WX    TMP DP  RH WIND       PRES   REMARKS
ST CLOUD       LGT SNOW  21  16  81 N16G24    29.82R WCI   7
6HR MIN TEMP:  21; 6HR MAX TEMP:  32; 6HR PCP: TRACE;

SAUK CENTRE    CLOUDY    16  11  80 N13G25    29.85R WCI   2
PAYNESVILLE    LGT SNOW  21  17  87 N15G21    29.82S WCI   7
AITKIN         CLOUDY    12   9  85 N13       29.89R WCI  -3
PINE RIVER     FLURRIES   9   3  78 N10       29.96R WCI  -6
BRAINERD       CLOUDY    14   7  73 N14       29.91R WCI  -1
STAPLES        CLOUDY    10   7  85 N10       29.90S WCI  -3
LONG PRAIRIE   FAIR      14  10  85 NW15G23   29.86R WCI  -1
LITTLE FALLS   CLOUDY    18   9  68 N9        29.87S WCI   6
LITCHFIELD     CLOUDY    25  19  80 N15G21    29.79S WCI  12
BUFFALO        CLOUDY    25  20  79 N10G18    29.79R WCI  15
MAPLE LAKE     CLOUDY    25  20  83 N16G23    29.81R WCI  12
HUTCHINSON     CLOUDY    25  20  82 N14G22    29.78S WCI  13
$$
MNZ037-044-045-052-053-190700-
   East Central Minnesota

CITY           SKY/WX    TMP DP  RH WIND       PRES   REMARKS
PRINCETON      LGT SNOW  25  19  80 N12G17    29.80F WCI  14
MORA           CLOUDY    21  18  86 N8        29.84S WCI  12
CAMBRIDGE      FLURRIES  27  18  69 N9G16     29.80S WCI  17
RUSH CITY      CLOUDY    25  21  85 N10G18    29.81S WCI  15
MOOSE LAKE     CLOUDY    19  12  73 N12       29.85R WCI   7
HINCKLEY       CLOUDY    21  19  93 N12G20    29.83R WCI   9
CLOQUET        CLOUDY    16   9  73 N13G20    29.87R WCI   2
MCGREGOR       CLOUDY    16  10  79 N9        29.89R WCI   4
$$
MNZ071>073-080-081-089-090-097-098-190700-
   Southwest Minnesota

CITY           SKY/WX    TMP DP  RH WIND       PRES   REMARKS
MONTEVIDEO     LGT SNOW  19  14  79 N12       29.84F WCI   7
GRANITE FALLS  MOCLDY    23  17  79 NW16G30   29.83F WCI   9
CANBY          CLOUDY    16  12  85 NW17G25   29.86F WCI   0
MARSHALL       PTCLDY    16  12  84 N21       29.81F WCI  -1
REDWOOD FALLS  CLOUDY    21  15  78 N10G22    29.79S WCI  10
OLIVIA         PTCLDY    23  18  80 N13G20    29.80F WCI  11
PIPESTONE      CLEAR     16  12  86 NE16G31   29.76R WCI   0
WINDOM         CLOUDY    21   7  53 N23G31    29.74S WCI   5
WORTHINGTON    CLOUDY    19  15  84 N23       29.74R WCI   2
JACKSON        CLEAR     23  19  86 N15G22    29.73R WCI  10
TRACY          PTCLDY    19  15  85 N15G22    29.79S WCI   5
SLAYTON        CLOUDY    18  14  87 N23G29    29.76S WCI   0
$$
MNZ065>067-074>077-082>085-091>093-190700-
   South Central Minnesota

CITY           SKY/WX    TMP DP  RH WIND       PRES   REMARKS
MANKATO        FAIR      26  22  84 N14       29.73R WCI  14
NEW ULM        PTCLDY    21  18  86 N13       29.76R WCI   9
ST JAMES       PTCLDY    23  19  86 NW20G29   29.76R WCI   8
FAIRMONT       CLEAR     25  21  85 N22       29.74R WCI  10
GLENCOE        MOCLDY    27  23  85 N13G22    29.76S WCI  16
FARIBAULT      FAIR      27  27 100 CALM      29.71R
OWATONNA       FAIR      32  28  86 SE3       29.70R
WASECA         FAIR      32  28  86 W6        29.72R WCI  26
ALBERT LEA     FAIR      34  28  80 CALM      29.69R
$$
MNZ078>079-086>088-094>096-190700-
   Southeast Minnesota

CITY           SKY/WX    TMP DP  RH WIND       PRES   REMARKS
ROCHESTER      CLOUDY    36  30  79 S12       29.69R
6HR MIN TEMP:  35; 6HR MAX TEMP:  37;

RED WING       FAIR      34  27  75 CALM      29.72S
STANTON        FAIR      31  28  88 CALM      29.70R
DODGE CENTER   FAIR      34  28  80 S6        29.70S WCI  29
WINONA         CLOUDY    41  30  65 S6        29.71S
AUSTIN         CLOUDY    36  30  80 SE3       29.69R
PRESTON        CLOUDY    36  29  75 S8        29.71S
$$
ABBREVIATIONS USED IN REMARKS
   TC - TEMPERATURES IN CELSIUS
  WCI - WIND CHILL INDEX
   HX - HEAT INDEX
  VSB - VISIBILITY
$$




USA.gov is the U.S. government's official web portal to all federal, state and local government web resources and services.